New Richmond, WI

1:44 PM CST on November 18, 2017 (GMT -0600)
New Richmond Municipal

Weather History for KRNH - April, 2013

Change the Weather History Date:

Thursday, April 18, 2013

  Actual Average (KSTP) Record (KSTP)
Temperature  
Mean Temperature 32 °F -  
Max Temperature 33 °F 57 °F 88 °F (2004)
Min Temperature 32 °F 37 °F 26 °F (2014)
Degree Days  
Heating Degree Days 32    
Moisture  
Dew Point 32 °F    
Average Humidity 100    
Maximum Humidity 100    
Minimum Humidity 93    
Precipitation  
Precipitation 0.14 in - - ()
Sea Level Pressure  
Sea Level Pressure 29.64 in    
Wind  
Wind Speed 13 mph (North)    
Max Wind Speed 21 mph    
Max Gust Speed 29 mph    
Visibility 5 miles    
Events Rain , Snow    
Averages and records for this station are not official NWS values.
T = Trace of Precipitation, MM = Missing Value Source: NWS Daily Summary

Daily Weather History Graph

Daily Weather History Graph

Search for Another Location

Airport or City:

Trip Planner

Search our weather history database for the weather conditions in past years. The results will help you decide how hot, cold, wet, or windy it might be!

Date:

Astronomy

Apr. 18, 2013 Rise Set
Actual Time 6:19 AM CDT 8:00 PM CDT
Civil Twilight 5:48 AM CDT 8:31 PM CDT
Nautical Twilight 5:10 AM CDT 9:09 PM CDT
Astronomical Twilight 4:30 AM CDT 9:50 PM CDT
Moon 12:28 PM CDT 2:18 AM CDT
Length of Visible Light 14h 42m
Length of Day
13h 40m
First Quarter, 52% of the Moon is Illuminated
Apr 18
First Quarter
Apr 25
Full
May 2
Last Quarter
May 9
New
May 17
First Quarter

Hourly Weather History & Observations

Time (CDT) Temp. Windchill Dew Point Humidity Pressure Visibility Wind Dir Wind Speed Gust Speed Precip Events Conditions
12:15 AM 33.8 °F 25.3 °F 32.0 °F 93% 29.90 in 10.0 mi NE 11.5 mph - N/A Rain Light Rain
12:35 AM 33.8 °F 24.8 °F 33.8 °F 100% 29.90 in 5.0 mi NNE 12.7 mph 16.1 mph 0.02 in Rain Rain
12:55 AM 33.8 °F 25.8 °F 33.8 °F 100% 29.90 in 7.0 mi NNE 10.4 mph - 0.04 in Rain Light Rain
1:15 AM 33.8 °F 25.8 °F 33.8 °F 100% 29.88 in 7.0 mi NNE 10.4 mph - 0.01 in   Drizzle
1:35 AM 33.8 °F 26.4 °F 33.8 °F 100% 29.87 in 5.0 mi NNE 9.2 mph - 0.02 in Rain Rain
1:55 AM 33.8 °F 25.8 °F 33.8 °F 100% 29.87 in 4.0 mi North 10.4 mph - 0.03 in Rain Rain
2:15 AM 33.8 °F 26.4 °F 33.8 °F 100% 29.84 in 4.0 mi NNE 9.2 mph - 0.01 in Rain Rain
2:35 AM 32.0 °F 23.0 °F 32.0 °F 100% 29.82 in 4.0 mi NNE 11.5 mph - 0.01 in Rain Rain
3:15 AM 32.0 °F 23.0 °F 32.0 °F 100% 29.81 in 5.0 mi NNE 11.5 mph - N/A   Overcast
3:35 AM 32.0 °F 24.2 °F 32.0 °F 100% 29.81 in 7.0 mi NNE 9.2 mph - N/A   Overcast
3:55 AM 32.0 °F 23.0 °F 32.0 °F 100% 29.81 in 7.0 mi North 11.5 mph - N/A   Drizzle
4:15 AM 32.0 °F 22.1 °F 32.0 °F 100% 29.79 in 5.0 mi NNE 13.8 mph 18.4 mph N/A   Light Drizzle
4:35 AM 32.0 °F 22.5 °F 32.0 °F 100% 29.78 in 4.0 mi North 12.7 mph - N/A Rain Light Rain
4:55 AM 32.0 °F 23.0 °F 32.0 °F 100% 29.78 in 4.0 mi North 11.5 mph 17.3 mph N/A Rain Rain
5:15 AM 32.0 °F 23.6 °F 32.0 °F 100% 29.79 in 5.0 mi North 10.4 mph - N/A   Drizzle
5:35 AM 32.0 °F 23.6 °F 32.0 °F 100% 29.79 in 5.0 mi North 10.4 mph - 0.01 in   Light Drizzle
5:55 AM 32.0 °F 23.6 °F 32.0 °F 100% 29.79 in 4.0 mi North 10.4 mph - 0.02 in Rain Rain
6:15 AM 32.0 °F 23.6 °F 32.0 °F 100% 29.79 in 5.0 mi North 10.4 mph - 0.01 in   Drizzle
6:35 AM 32.0 °F 23.0 °F 32.0 °F 100% 29.76 in 7.0 mi NNE 11.5 mph - 0.01 in   Light Drizzle
6:55 AM 32.0 °F 22.1 °F 32.0 °F 100% 29.74 in 10.0 mi NNE 13.8 mph - 0.01 in   Overcast
7:15 AM 32.0 °F 22.1 °F 32.0 °F 100% 29.74 in 10.0 mi NNE 13.8 mph - N/A   Overcast
7:35 AM 32.0 °F 23.6 °F 32.0 °F 100% 29.74 in 10.0 mi NNE 10.4 mph - N/A   Overcast
7:55 AM 32.0 °F 23.6 °F 32.0 °F 100% 29.74 in 10.0 mi North 10.4 mph 16.1 mph N/A   Overcast
8:15 AM 32.0 °F 24.8 °F 32.0 °F 100% 29.74 in 10.0 mi North 8.1 mph 11.5 mph N/A   Overcast
8:35 AM 32.0 °F 24.2 °F 32.0 °F 100% 29.74 in 10.0 mi North 9.2 mph - N/A   Overcast
8:55 AM 32.0 °F 23.0 °F 32.0 °F 100% 29.70 in 10.0 mi North 11.5 mph - N/A   Overcast
9:15 AM 32.0 °F 22.1 °F 32.0 °F 100% 29.68 in 10.0 mi North 13.8 mph 18.4 mph N/A   Overcast
9:35 AM 32.0 °F 20.1 °F 32.0 °F 100% 29.67 in 10.0 mi North 19.6 mph - N/A   Overcast
9:55 AM 32.0 °F 19.8 °F 32.0 °F 100% 29.66 in 10.0 mi North 20.7 mph 26.5 mph N/A   Overcast
10:15 AM 32.0 °F 20.1 °F 32.0 °F 100% 29.64 in 10.0 mi NNE 19.6 mph 25.3 mph N/A   Overcast
10:35 AM 32.0 °F 22.1 °F 32.0 °F 100% 29.67 in 10.0 mi NNE 13.8 mph 21.9 mph N/A   Overcast
10:55 AM 32.0 °F 22.1 °F 32.0 °F 100% 29.67 in 10.0 mi NNE 13.8 mph - N/A   Overcast
11:15 AM 32.0 °F 23.6 °F 32.0 °F 100% 29.67 in 10.0 mi NNE 10.4 mph - N/A   Overcast
11:35 AM 32.0 °F 22.5 °F 32.0 °F 100% 29.65 in 10.0 mi NE 12.7 mph 19.6 mph N/A Rain Light Rain
11:55 AM 33.8 °F 23.9 °F 32.0 °F 93% 29.62 in 10.0 mi NNE 15.0 mph - N/A   Light Drizzle
12:15 PM 33.8 °F 25.3 °F 32.0 °F 93% 29.62 in 7.0 mi NNE 11.5 mph 19.6 mph 0.01 in Rain Light Rain
12:35 PM 33.8 °F 23.2 °F 32.0 °F 93% 29.62 in 10.0 mi North 17.3 mph 21.9 mph 0.01 in Rain Light Rain
12:55 PM 32.0 °F 22.5 °F 32.0 °F 100% 29.62 in 7.0 mi NNE 12.7 mph 24.2 mph 0.01 in Rain Light Rain
1:15 PM 32.0 °F 20.5 °F 32.0 °F 100% 29.58 in 1.8 mi NNE 18.4 mph 23.0 mph 0.02 in Snow Light Snow
1:35 PM 32.0 °F 22.5 °F 32.0 °F 100% 29.59 in 2.5 mi North 12.7 mph 17.3 mph 0.02 in Snow Light Snow
1:55 PM 32.0 °F 23.0 °F 32.0 °F 100% 29.59 in 2.5 mi NNE 11.5 mph - 0.02 in Snow Light Snow
2:15 PM 32.0 °F 21.6 °F 32.0 °F 100% 29.57 in 2.5 mi NNE 15.0 mph 19.6 mph N/A Snow Light Snow
2:35 PM 32.0 °F 23.6 °F 32.0 °F 100% 29.58 in 1.8 mi North 10.4 mph - N/A Snow Light Snow
2:55 PM 32.0 °F 23.0 °F 32.0 °F 100% 29.56 in 2.5 mi North 11.5 mph - N/A Rain Light Rain
3:35 PM 32.0 °F 21.2 °F 32.0 °F 100% 29.50 in 1.5 mi North 16.1 mph - N/A Snow Light Snow
3:55 PM 32.0 °F 20.8 °F 32.0 °F 100% 29.48 in 1.5 mi NNE 17.3 mph 23.0 mph N/A Snow Light Snow
4:15 PM 32.0 °F 22.5 °F 32.0 °F 100% 29.52 in 1.5 mi North 12.7 mph 21.9 mph N/A Snow Light Snow
4:35 PM 32.0 °F 22.1 °F 32.0 °F 100% 29.52 in 1.8 mi North 13.8 mph 18.4 mph N/A Snow Light Snow
4:55 PM 32.0 °F 22.5 °F 32.0 °F 100% 29.52 in 2.5 mi North 12.7 mph 20.7 mph N/A Snow Light Snow
5:15 PM 32.0 °F 23.0 °F 32.0 °F 100% 29.52 in 1.2 mi North 11.5 mph - N/A Snow Light Snow
5:35 PM 32.0 °F 23.0 °F 32.0 °F 100% 29.51 in 1.0 mi North 11.5 mph - N/A Snow Light Snow
5:55 PM 32.0 °F 20.5 °F 32.0 °F 100% 29.47 in 0.8 mi North 18.4 mph 25.3 mph N/A Snow Light Snow
6:15 PM 32.0 °F 20.5 °F 32.0 °F 100% 29.48 in 0.8 mi North 18.4 mph 25.3 mph N/A Snow Light Snow
6:35 PM 32.0 °F 20.8 °F 32.0 °F 100% 29.48 in 1.0 mi North 17.3 mph 23.0 mph N/A Snow Light Snow
6:55 PM 32.0 °F 19.8 °F 32.0 °F 100% 29.46 in 0.8 mi North 20.7 mph 28.8 mph N/A Snow Light Snow
7:15 PM 32.0 °F 20.1 °F 32.0 °F 100% 29.47 in 1.2 mi North 19.6 mph 24.2 mph N/A Snow Light Snow
7:35 PM 32.0 °F 20.8 °F 32.0 °F 100% 29.46 in 2.0 mi North 17.3 mph 23.0 mph N/A Snow Light Snow
7:55 PM 32.0 °F 22.1 °F 32.0 °F 100% 29.46 in 1.2 mi North 13.8 mph - N/A Snow Light Snow
8:15 PM 32.0 °F 21.6 °F 32.0 °F 100% 29.46 in 1.5 mi NNW 15.0 mph - N/A Snow Light Snow
8:35 PM 32.0 °F 23.0 °F 32.0 °F 100% 29.47 in 1.2 mi NNW 11.5 mph 17.3 mph N/A Snow Light Snow
9:55 PM 32.0 °F 22.1 °F 32.0 °F 100% 29.47 in 1.2 mi NNW 13.8 mph - N/A Snow Light Snow
10:35 PM 32.0 °F 21.6 °F 32.0 °F 100% 29.45 in 1.2 mi NW 15.0 mph 23.0 mph N/A Snow Light Snow
10:55 PM 32.0 °F 20.5 °F 32.0 °F 100% 29.44 in 1.2 mi NNW 18.4 mph 23.0 mph N/A Snow Light Snow
11:15 PM 32.0 °F 19.8 °F 32.0 °F 100% 29.43 in 1.0 mi NNW 20.7 mph 26.5 mph N/A Snow Snow
11:35 PM 32.0 °F 20.1 °F 32.0 °F 100% 29.42 in 1.0 mi NNW 19.6 mph 25.3 mph N/A Snow Snow
11:55 PM 32.0 °F 20.1 °F 32.0 °F 100% 29.42 in 0.8 mi NNW 19.6 mph - N/A Snow Snow